Terminal Aerodrome Forecast
Issued by NWS Topeka, KS

Home | Current Version | Previous Version | Text Only | Print | Product List | Glossary On
Versions: 1 2 3 4 5 6 7 8 9 10 11 12 13
000
FTUS43 KTOP 110811 AAA
TAFTOP
TAF AMD
KTOP 110811Z 1108/1206 16011KT P6SM OVC022
      TEMPO 1112/1116 4SM -DZ OVC008
     FM111700 25007KT P6SM OVC018
     FM112200 33012KT P6SM SCT035 BKN100
     FM120100 33007KT P6SM SCT200=

USA.gov is the U.S. government's official web portal to all federal, state and local government web resources and services.